20050111,000003,606982,33.673206,-118.093425,12.6,15.208,29.257,36.717,79.60,0.0,2.199,14.991,14.959, NaN,21.506,   NaN,15.08,1014.01,100.00,15.36,33.0,32.9,6.3,6.7,192.1,192.0,6.5,6.9,NaN, NaN,18.8,40.3,33.8,1105401603,1105401603,1,0.8,000003,000003,150.2,33.673338,-118.093473,-0.57,NaN,NaN,15.212, NaN,NaN,NaN, NaN, NaN
20050111,000033,607012,33.673265,-118.093358,12.6,15.207,29.263,36.723,80.54,0.0,2.199,14.986,14.954, NaN,21.510,   NaN,15.08,1013.97,100.00,15.38,41.2,42.1,6.2,6.0,192.9,193.8,6.5,6.4,NaN, NaN,17.8,60.5,38.6,1105401633,1105401633,1,1.0,000033,000033,140.2,33.673395,-118.093437,-0.63,NaN,NaN,15.211, NaN,NaN,NaN, NaN, NaN
20050111,000104,607043,33.673328,-118.093272,12.6,15.206,29.137,36.580,84.47,0.0,2.124,14.985,14.953, NaN,21.414,   NaN,15.08,1013.96,100.00,15.37,50.9,53.2,6.2,5.3,193.3,195.7,6.5,5.6,NaN, NaN,19.5,83.2,80.2,1105401664,1105401664,1,1.0,000063,000064,133.9,33.673445,-118.093358,-0.72,NaN,NaN,15.210, NaN,NaN,NaN, NaN, NaN
20050111,000133,607071,33.673341,-118.093108,12.6,15.208,29.441,36.925,86.67,0.0,2.105,14.985,14.950, NaN,21.647,   NaN,15.08,1013.97,100.00,15.40,55.0,58.1,6.1,5.0,194.1,197.7,6.4,5.3,NaN, NaN,18.0,77.2,92.9,1105401694,1105401693,1,1.3,000093,000093,140.2,33.673465,-118.093192,-0.62,NaN,NaN,15.212, NaN,NaN,NaN, NaN, NaN
20050111,000203,607101,33.673286,-118.092910,12.6,15.209,29.837,37.372,89.12,0.0,2.086,14.980,14.947, NaN,21.951,   NaN,15.08,1013.98,100.00,15.41,48.1,51.3,6.3,5.7,195.0,198.6,6.4,5.8,NaN, NaN,18.9,67.6,89.0,1105401723,1105401723,1,1.7,000123,000123,154.2,33.673425,-118.092970,-0.69,NaN,NaN,15.213, NaN,NaN,NaN, NaN, NaN
20050111,000234,607132,33.673200,-118.092757,12.5,15.205,30.007,37.560,91.53,0.0,2.180,14.981,14.947, NaN,22.083,   NaN,15.08,1013.98,100.00,15.38,34.6,36.7,6.6,6.8,195.7,197.8,6.5,6.8,NaN, NaN,18.4,196.4,128.4,1105401754,1105401753,1,1.3,000153,000153,171.9,33.673341,-118.092747,-0.62,NaN,NaN,15.209, NaN,NaN,NaN, NaN, NaN
20050111,000303,607162,33.673148,-118.092670,12.4,15.208,30.192,37.771,91.76,0.0,2.294,14.978,14.945, NaN,22.225,   NaN,15.08,1013.99,100.00,15.37,19.7,21.4,6.9,7.4,194.3,195.9,6.8,7.2,NaN, NaN,18.0,106.7,110.9,1105401783,1105401783,1,0.5,000183,000183,181.6,33.673270,-118.092633,-0.37,NaN,NaN,15.212, NaN,NaN,NaN, NaN, NaN
20050111,000334,607192,33.673138,-118.092610,12.5,15.211,28.686,36.073,90.17,0.0,2.350,14.974,14.942, NaN,21.066,   NaN,15.08,1014.00,100.00,15.38,8.3,9.7,6.8,7.0,192.0,193.3,6.7,7.0,NaN, NaN,17.2,93.2,97.5,1105401814,1105401814,1,0.7,000213,000214,184.9,33.673256,-118.092557,-0.28,NaN,NaN,15.215, NaN,NaN,NaN, NaN, NaN
20050111,000404,607223,33.673153,-118.092570,12.6,15.206,28.450,35.801,89.87,0.0,2.237,14.973,14.939, NaN,20.885,   NaN,15.08,1013.98,100.00,15.39,5.1,7.3,6.7,6.9,191.8,193.8,6.7,6.9,NaN, NaN,15.9,100.8,90.4,1105401844,1105401844,1,1.0,000243,000244,182.9,33.673270,-118.092520,-0.22,NaN,NaN,15.210, NaN,NaN,NaN, NaN, NaN
20050111,000433,607251,33.673171,-118.092537,12.6,15.203,28.644,36.019,90.38,0.0,2.218,14.970,14.937, NaN,21.035,   NaN,15.08,1013.98,100.00,15.38,7.5,10.7,6.8,6.9,192.0,195.1,6.9,7.0,NaN, NaN,15.5,87.8,279.8,1105401873,1105401873,1,0.4,000273,000273,175.6,33.673290,-118.092508,-0.29,NaN,NaN,15.207, NaN,NaN,NaN, NaN, NaN
20050111,000504,607283,33.673208,-118.092473,12.7,15.197,28.979,36.394,91.04,0.0,2.180,14.971,14.939, NaN,21.294,   NaN,15.08,1013.96,100.00,15.37,15.4,17.2,6.6,6.8,192.6,194.3,6.8,6.9,NaN, NaN,17.0,77.2,32.3,1105401904,1105401904,1,0.5,000304,000304,165.9,33.673335,-118.092477,-0.45,NaN,NaN,15.201, NaN,NaN,NaN, NaN, NaN
20050111,000533,607312,33.673255,-118.092422,12.8,15.196,29.589,37.082,91.22,0.0,2.199,14.970,14.937, NaN,21.764,   NaN,15.08,1013.97,100.00,15.38,26.1,25.6,6.7,7.1,194.2,193.6,6.9,7.3,NaN, NaN,17.9,77.0,7.6,1105401934,1105401933,1,0.4,000333,000333,156.6,33.673383,-118.092452,-0.48,NaN,NaN,15.200, NaN,NaN,NaN, NaN, NaN
20050111,000604,607342,33.673275,-118.092323,12.7,15.193,29.875,37.401,87.89,0.0,2.067,14.971,14.939, NaN,21.984,   NaN,15.07,1013.95,100.00,15.38,36.4,35.8,6.5,6.5,196.3,195.8,6.7,6.8,NaN, NaN,17.9,217.4,172.5,1105401964,1105401964,1,0.6,000364,000364,154.6,33.673401,-118.092353,-0.65,NaN,NaN,15.197, NaN,NaN,NaN, NaN, NaN
20050111,000634,607372,33.673228,-118.092175,12.4,15.197,30.221,37.794,82.62,0.0,2.067,14.971,14.936, NaN,22.249,   NaN,15.07,1013.93,100.00,15.37,37.5,37.6,6.7,6.6,197.2,197.3,6.8,6.7,NaN, NaN,18.9,107.2,116.3,1105401994,1105401994,1,1.2,000393,000394,162.2,33.673356,-118.092178,-0.64,NaN,NaN,15.201, NaN,NaN,NaN, NaN, NaN
20050111,000704,607403,33.673145,-118.092032,12.4,15.200,30.234,37.812,76.10,0.0,2.105,14.971,14.937, NaN,22.259,   NaN,15.07,1013.95,100.00,15.36,29.8,29.6,7.3,7.5,196.6,196.3,7.2,7.4,NaN, NaN,18.7,220.7,162.8,1105402023,1105402023,1,0.9,000423,000423,172.9,33.673276,-118.092017,-0.64,NaN,NaN,15.204, NaN,NaN,NaN, NaN, NaN
20050111,000734,607433,33.673051,-118.091922,12.5,15.203,30.507,38.122,67.62,0.0,2.162,14.970,14.937, NaN,22.468,   NaN,15.08,1013.98,100.00,15.37,19.7,20.6,7.7,7.9,196.0,196.8,7.5,7.8,NaN, NaN,18.7,105.8,159.3,1105402054,1105402054,1,0.5,000454,000454,180.9,33.673176,-118.091890,-0.52,NaN,NaN,15.207, NaN,NaN,NaN, NaN, NaN
20050111,000804,607462,33.672993,-118.091850,12.6,15.205,30.337,37.931,59.68,0.0,2.313,14.971,14.938, NaN,22.337,   NaN,15.08,1013.96,100.00,15.38,12.3,14.5,7.5,7.8,195.2,197.2,7.4,7.7,NaN, NaN,18.0,141.7,147.7,1105402084,1105402084,1,0.5,000484,000484,182.1,33.673118,-118.091812,-0.37,NaN,NaN,15.209, NaN,NaN,NaN, NaN, NaN
20050111,000834,607492,33.672961,-118.091800,12.5,15.199,29.592,37.088,52.32,0.0,2.313,14.970,14.938, NaN,21.765,   NaN,15.08,1013.96,100.00,15.38,10.6,14.0,7.3,7.6,195.2,198.5,7.2,7.6,NaN, NaN,17.9,52.2,106.3,1105402114,1105402114,1,0.3,000514,000514,182.0,33.673083,-118.091748,-0.34,NaN,NaN,15.203, NaN,NaN,NaN, NaN, NaN
20050111,000904,607522,33.672945,-118.091733,12.7,15.198,29.113,36.546,47.48,0.0,2.407,14.970,14.938, NaN,21.397,   NaN,15.08,1014.00,100.00,15.36,11.3,14.0,7.4,7.5,195.9,198.5,7.4,7.6,NaN, NaN,17.6,109.1,213.4,1105402144,1105402144,1,0.2,000544,000544,179.7,33.673066,-118.091693,-0.36,NaN,NaN,15.202, NaN,NaN,NaN, NaN, NaN
20050111,000935,607553,33.672885,-118.091658,12.7,15.192,28.846,36.239,43.44,0.0,2.275,14.971,14.939, NaN,21.193,   NaN,15.08,1013.95,100.00,15.37,13.8,14.8,7.3,7.4,195.4,196.4,7.3,7.4,NaN, NaN,16.9,225.1,157.3,1105402174,1105402174,1,0.6,000574,000574,173.2,33.673015,-118.091642,-0.33,NaN,NaN,15.196, NaN,NaN,NaN, NaN, NaN
20050111,001004,607583,33.672793,-118.091578,12.8,15.190,28.748,36.126,42.31,0.0,2.218,14.971,14.936, NaN,21.118,   NaN,15.07,1013.96,100.00,15.37,20.4,20.1,7.1,7.4,195.9,195.5,6.9,7.3,NaN, NaN,18.3,99.6,168.8,1105402204,1105402204,1,0.8,000604,000604,166.5,33.672926,-118.091587,-0.38,NaN,NaN,15.194, NaN,NaN,NaN, NaN, NaN
20050111,001034,607613,33.672681,-118.091448,12.7,15.189,29.154,36.585,44.06,0.0,2.105,14.974,14.939, NaN,21.431,   NaN,15.06,1013.90,100.00,15.36,26.3,25.8,7.0,7.4,196.4,195.6,6.8,7.1,NaN, NaN,18.4,107.2,145.3,1105402234,1105402234,1,1.3,000633,000634,162.2,33.672805,-118.091462,-0.45,NaN,NaN,15.193, NaN,NaN,NaN, NaN, NaN
20050111,001104,607642,33.672520,-118.091292,12.7,15.190,29.173,36.607,49.75,0.0,2.218,14.971,14.938, NaN,21.445,   NaN,15.06,1013.92,100.00,15.35,28.1,28.0,7.1,7.5,196.4,196.1,6.8,7.1,NaN, NaN,18.5,127.8,129.4,1105402264,1105402264,1,1.5,000664,000664,165.7,33.672650,-118.091300,-0.45,NaN,NaN,15.194, NaN,NaN,NaN, NaN, NaN
20050111,001134,607672,33.672325,-118.091157,12.6,15.197,28.542,35.899,55.64,0.0,2.426,14.971,14.940, NaN,20.958,   NaN,15.06,1013.89,100.00,15.35,24.7,25.2,7.5,7.9,195.2,195.5,7.0,7.4,NaN, NaN,18.7,143.1,146.5,1105402294,1105402294,1,1.8,000694,000694,169.2,33.672456,-118.091153,-0.43,NaN,NaN,15.201, NaN,NaN,NaN, NaN, NaN
20050111,001204,607702,33.672116,-118.091027,12.7,15.196,27.697,34.938,60.20,0.0,2.313,14.974,14.939, NaN,20.309,   NaN,15.06,1013.88,100.00,15.36,21.0,22.2,7.8,8.3,194.1,195.1,7.1,7.7,NaN, NaN,20.1,175.7,160.6,1105402324,1105402324,1,1.8,000723,000724,169.9,33.672250,-118.091020,-0.38,NaN,NaN,15.200, NaN,NaN,NaN, NaN, NaN
20050111,001234,607733,33.671890,-118.090918,12.5,15.191,28.854,36.247,64.00,0.0,2.124,14.971,14.938, NaN,21.199,   NaN,15.07,1013.89,100.00,15.34,21.9,22.3,7.9,8.3,195.9,196.1,7.2,7.6,NaN, NaN,19.4,155.0,155.3,1105402354,1105402354,1,1.8,000754,000754,170.4,33.672025,-118.090907,-0.30,NaN,NaN,15.195, NaN,NaN,NaN, NaN, NaN
20050111,001304,607763,33.671676,-118.090807,12.6,15.192,29.778,37.291,67.09,0.0,2.124,14.971,14.939, NaN,21.910,   NaN,15.06,1013.90,100.00,15.34,22.8,23.2,7.9,8.3,197.1,197.2,7.3,7.7,NaN, NaN,19.3,126.5,158.7,1105402384,1105402384,1,1.8,000784,000784,169.6,33.671808,-118.090800,-0.32,NaN,NaN,15.196, NaN,NaN,NaN, NaN, NaN
20050111,001335,607794,33.671478,-118.090698,12.7,15.192,29.869,37.394,69.76,0.0,2.124,14.978,14.946, NaN,21.979,   NaN,15.06,1013.89,100.00,15.34,22.1,22.6,7.8,8.2,196.2,196.6,7.1,7.6,NaN, NaN,18.7,216.3,169.7,1105402415,1105402415,1,1.1,000814,000815,171.1,33.671608,-118.090688,-0.36,NaN,NaN,15.196, NaN,NaN,NaN, NaN, NaN
20050111,001404,607822,33.671373,-118.090603,12.6,15.187,29.882,37.404,71.08,0.0,2.086,14.984,14.952, NaN,21.990,   NaN,15.06,1013.91,100.00,15.33,21.3,22.0,7.7,8.1,196.2,196.8,7.3,7.7,NaN, NaN,18.7,147.3,148.3,1105402444,1105402444,1,0.9,000844,000844,173.9,33.671506,-118.090588,-0.38,NaN,NaN,15.191, NaN,NaN,NaN, NaN, NaN
20050111,001434,607852,33.671226,-118.090515,12.7,15.186,30.001,37.537,72.02,0.0,2.124,14.992,14.961, NaN,22.083,   NaN,15.06,1013.89,100.00,15.35,19.1,20.7,7.7,8.2,195.5,197.0,7.4,7.9,NaN, NaN,19.2,146.3,154.4,1105402475,1105402474,1,1.3,000874,000874,171.1,33.671370,-118.090513,-0.29,NaN,NaN,15.190, NaN,NaN,NaN, NaN, NaN
20050111,001505,607883,33.671093,-118.090418,12.7,15.197,30.254,37.831,74.19,0.0,2.313,15.002,14.972, NaN,22.274,   NaN,15.06,1013.91,100.00,15.33,20.5,22.3,7.7,8.3,194.8,196.5,7.3,7.9,NaN, NaN,19.7,115.4,125.9,1105402505,1105402505,1,1.1,000904,000905,167.4,33.671226,-118.090420,-0.31,NaN,NaN,15.201, NaN,NaN,NaN, NaN, NaN
20050111,001535,607913,33.671000,-118.090323,12.6,15.206,28.414,35.761,79.12,0.0,2.407,15.013,14.980, NaN,20.858,   NaN,15.05,1013.89,100.00,15.33,24.6,25.8,7.6,8.1,195.2,196.2,7.3,7.8,NaN, NaN,20.0,136.0,141.1,1105402535,1105402535,1,0.8,000935,000935,165.2,33.671140,-118.090332,-0.45,NaN,NaN,15.210, NaN,NaN,NaN, NaN, NaN
20050111,001604,607943,33.670945,-118.090233,12.5,15.207,27.407,34.617,80.58,0.0,2.482,15.016,14.984, NaN,20.085,   NaN,15.05,1013.87,100.00,15.34,27.6,28.1,7.3,7.7,196.4,196.8,7.2,7.6,NaN, NaN,19.6,126.4,154.6,1105402564,1105402564,1,0.7,000964,000964,164.9,33.671085,-118.090235,-0.48,NaN,NaN,15.211, NaN,NaN,NaN, NaN, NaN
20050111,001634,607972,33.670871,-118.090108,12.8,15.213,26.547,33.639,80.21,0.0,2.615,15.016,14.983, NaN,19.423,   NaN,15.05,1013.88,100.00,15.34,27.8,28.2,7.2,7.6,197.8,197.9,7.2,7.6,NaN, NaN,19.1,172.2,160.8,1105402594,1105402594,1,1.0,000994,000994,171.9,33.671006,-118.090100,-0.50,NaN,NaN,15.217, NaN,NaN,NaN, NaN, NaN
20050111,001704,608002,33.670763,-118.090010,12.8,15.211,25.763,32.738,83.07,0.0,2.501,15.009,14.975, NaN,18.821,   NaN,15.04,1013.90,100.00,15.35,19.2,21.0,7.4,7.8,196.6,198.2,7.2,7.7,NaN, NaN,19.4,124.3,128.6,1105402624,1105402624,1,1.3,001024,001024,186.9,33.670895,-118.089973,-0.37,NaN,NaN,15.215, NaN,NaN,NaN, NaN, NaN
20050111,001735,608034,33.670621,-118.089982,12.4,15.218,25.526,32.470,85.43,0.0,2.615,15.001,14.969, NaN,18.638,   NaN,15.05,1013.88,100.00,15.34,2.5,6.1,7.4,7.6,192.9,196.6,7.1,7.3,NaN, NaN,18.7,140.9,152.6,1105402655,1105402655,1,1.5,001055,001055,202.1,33.670740,-118.089905,-0.28,NaN,NaN,15.222, NaN,NaN,NaN, NaN, NaN
20050111,001804,608063,33.670511,-118.090030,12.7,15.233,25.412,32.351,85.17,0.0,2.747,14.999,14.967, NaN,18.547,   NaN,15.05,1013.91,100.00,15.33,346.2,350.0,7.4,7.0,189.0,193.1,6.9,6.6,NaN, NaN,18.3,199.7,235.3,1105402684,1105402684,1,0.7,001084,001084,215.2,33.670598,-118.089918,-0.02,NaN,NaN,15.237, NaN,NaN,NaN, NaN, NaN
20050111,001835,608093,33.670405,-118.090122,12.7,15.255,23.662,30.340,82.65,0.0,3.030,15.002,14.971, NaN,17.200,   NaN,15.05,1013.89,100.00,15.32,333.0,335.4,7.2,6.8,185.1,187.5,6.7,6.3,NaN, NaN,17.6,212.2,227.8,1105402715,1105402715,1,0.9,001115,001115,216.6,33.670490,-118.090008,0.12,NaN,NaN,15.259, NaN,NaN,NaN, NaN, NaN
20050111,001905,608123,33.670333,-118.090197,12.3,15.297,19.736,25.752,83.38,0.0,3.558,15.016,14.985, NaN,14.183,   NaN,15.05,1013.87,100.00,15.32,330.0,331.6,7.1,6.8,184.7,186.2,6.7,6.4,NaN, NaN,16.9,176.8,194.0,1105402745,1105402745,1,0.8,001145,001145,214.4,33.670426,-118.090083,0.13,NaN,NaN,15.301, NaN,NaN,NaN, NaN, NaN
20050111,001935,608154,33.670326,-118.090248,12.5,15.270,19.050,24.920,88.25,0.0,2.784,15.034,15.001, NaN,13.663,   NaN,15.05,1013.87,100.00,15.32,330.0,332.4,6.9,6.5,184.8,187.1,6.7,6.2,NaN, NaN,17.8,257.7,292.4,1105402776,1105402775,1,0.1,001175,001175,220.6,33.670410,-118.090123,0.18,NaN,NaN,15.274, NaN,NaN,NaN, NaN, NaN
20050111,002005,608184,33.670333,-118.090263,12.3,15.252,22.656,29.166,92.50,0.0,2.652,15.045,15.013, NaN,16.430,   NaN,15.05,1013.85,100.00,15.32,324.9,327.5,6.7,6.4,183.5,185.9,6.6,6.4,NaN, NaN,17.5,340.4,134.7,1105402805,1105402805,1,0.3,001204,001205,228.2,33.670408,-118.090135,0.20,NaN,NaN,15.256, NaN,NaN,NaN, NaN, NaN
20050111,002035,608213,33.670391,-118.090283,12.4,15.261,22.917,29.477,97.18,0.0,2.898,15.053,15.020, NaN,16.628,   NaN,15.04,1013.87,100.00,15.32,315.4,316.7,6.4,6.6,182.7,183.8,6.5,6.7,NaN, NaN,17.0,293.6,90.0,1105402835,1105402835,1,0.3,001235,001235,240.4,33.670440,-118.090142,0.43,NaN,NaN,15.265, NaN,NaN,NaN, NaN, NaN
20050111,002105,608243,33.670468,-118.090285,12.3,15.213,25.600,32.551,102.97,0.0,2.143,15.055,15.021, NaN,18.696,   NaN,15.04,1013.81,100.00,15.32,304.2,304.5,6.6,6.9,183.6,183.7,6.9,7.2,NaN, NaN,16.4,6.9,356.5,1105402865,1105402865,1,0.0,001265,001265,250.4,33.670493,-118.090128,0.56,NaN,NaN,15.217, NaN,NaN,NaN, NaN, NaN
20050111,002136,608275,33.670536,-118.090375,12.3,15.216,27.836,35.113,106.32,0.0,2.369,15.053,15.017, NaN,20.412,   NaN,15.04,1013.80,100.00,15.33,295.6,294.5,5.9,6.7,184.7,183.9,6.2,7.0,NaN, NaN,16.3,295.1,281.4,1105402896,1105402896,1,1.6,001295,001296,260.1,33.670538,-118.090230,0.56,NaN,NaN,15.220, NaN,NaN,NaN, NaN, NaN
20050111,002205,608304,33.670565,-118.090727,12.5,15.211,27.259,34.452,107.53,0.0,2.256,15.046,15.011, NaN,19.970,   NaN,15.04,1013.77,100.00,15.33,291.2,290.0,5.4,6.8,183.4,184.0,5.5,6.9,NaN, NaN,16.9,285.1,280.9,1105402925,1105402925,1,2.6,001325,001325,263.1,33.670555,-118.090572,0.51,NaN,NaN,15.215, NaN,NaN,NaN, NaN, NaN
20050111,002235,608334,33.670538,-118.091210,12.6,15.205,27.692,34.939,109.50,0.0,2.256,15.036,15.001, NaN,20.304,   NaN,15.04,1013.75,100.00,15.33,297.0,294.4,6.6,7.8,185.2,184.4,6.3,7.6,NaN, NaN,17.0,264.2,266.4,1105402955,1105402955,1,3.3,001354,001355,248.2,33.670555,-118.091082,0.64,NaN,NaN,15.209, NaN,NaN,NaN, NaN, NaN
20050111,002305,608364,33.670370,-118.091823,12.1,15.224,26.566,33.669,111.61,0.0,2.784,15.024,14.993, NaN,19.435,   NaN,15.04,1013.76,100.00,15.34,307.0,304.6,7.9,8.1,186.2,183.9,7.2,7.4,NaN, NaN,16.3,253.5,246.8,1105402985,1105402985,1,4.1,001385,001385,250.7,33.670381,-118.091675,0.38,NaN,NaN,15.228, NaN,NaN,NaN, NaN, NaN
20050111,002335,608393,33.670213,-118.092545,12.4,15.217,25.717,32.690,113.31,0.0,2.313,15.014,14.982, NaN,18.785,   NaN,15.04,1013.72,100.00,15.32,307.0,307.1,8.3,8.1,184.5,184.3,7.3,7.1,NaN, NaN,16.3,260.5,261.0,1105403016,1105403016,1,5.0,001415,001416,258.4,33.670205,-118.092428,0.37,NaN,NaN,15.221, NaN,NaN,NaN, NaN, NaN
20050111,002405,608423,33.670095,-118.093335,12.6,15.211,26.753,33.873,114.17,0.0,2.256,14.993,14.959, NaN,19.582,   NaN,15.04,1013.72,100.00,15.33,304.9,305.0,8.4,8.2,184.7,184.5,7.3,7.2,NaN, NaN,15.3,260.8,254.0,1105403045,1105403045,1,5.0,001445,001445,252.6,33.670098,-118.093185,0.54,NaN,NaN,15.215, NaN,NaN,NaN, NaN, NaN
20050111,002436,608455,33.669910,-118.094108,12.6,15.212,27.659,34.907,108.72,0.0,2.105,14.971,14.937, NaN,20.277,   NaN,12.30,1013.20,42.76,13.67,307.0,306.5,8.5,8.4,185.1,184.1,7.4,7.3,NaN, NaN,15.5,256.0,255.2,1105403076,1105403075,1,4.7,001475,001475,254.1,33.669915,-118.093963,0.32,NaN,NaN,15.216, NaN,NaN,NaN, NaN, NaN
20050111,002505,608484,33.669763,-118.094920,12.5,15.213,28.893,36.309,110.29,0.0,2.067,14.954,14.918, NaN,21.225,   NaN,14.87,1013.92,100.00,42.06,306.2,306.2,8.5,8.3,184.4,183.9,7.3,7.1,NaN, NaN,15.3,256.2,261.1,1105403105,1105403105,1,5.1,001505,001505,256.4,33.669760,-118.094773,0.35,NaN,NaN,15.217, NaN,NaN,NaN, NaN, NaN
20050111,002535,608514,33.669596,-118.095732,12.5,15.203,28.967,36.386,104.73,0.0,2.369,14.938,14.905, NaN,21.284,   NaN,13.92,1013.41,100.00,33.09,307.1,306.4,8.4,8.2,185.9,184.6,7.3,7.1,NaN, NaN,15.8,263.5,256.8,1105403135,1105403135,1,4.7,001535,001535,253.6,33.669598,-118.095582,0.39,NaN,NaN,15.207, NaN,NaN,NaN, NaN, NaN
20050111,002605,608544,33.669420,-118.096535,12.3,15.207,28.647,36.026,102.54,0.0,2.086,14.932,14.899, NaN,21.037,   NaN,14.67,1013.82,100.00,34.71,308.7,308.5,8.7,8.4,187.0,186.1,7.4,7.2,NaN, NaN,16.4,260.7,254.5,1105403165,1105403165,1,4.9,001565,001565,255.1,33.669421,-118.096377,0.22,NaN,NaN,15.211, NaN,NaN,NaN, NaN, NaN
20050111,002635,608573,33.669275,-118.097338,12.5,15.201,28.589,35.954,95.99,0.0,2.426,14.938,14.904, NaN,20.993,   NaN,15.12,1013.67,100.00,15.74,305.8,306.4,8.5,8.4,185.2,185.6,7.3,7.2,NaN, NaN,15.9,262.3,260.1,1105403196,1105403196,1,5.0,001595,001596,257.0,33.669271,-118.097207,0.34,NaN,NaN,15.205, NaN,NaN,NaN, NaN, NaN
20050111,002705,608603,33.669071,-118.098260,12.5,15.196,25.079,31.939,90.51,0.0,3.068,14.936,14.901, NaN,18.299,   NaN,15.03,1013.64,100.00,15.38,305.3,306.3,8.5,8.5,183.6,184.8,7.2,7.2,NaN, NaN,15.4,257.0,252.9,1105403225,1105403225,1,6.1,001625,001625,255.8,33.669071,-118.098092,0.29,NaN,NaN,15.200, NaN,NaN,NaN, NaN, NaN
20050111,002736,608634,33.668855,-118.099277,12.6,15.189,22.075,28.445,86.05,0.0,2.520,14.916,14.881, NaN,15.997,   NaN,15.03,1013.62,100.00,15.34,308.5,309.4,9.0,8.8,185.1,185.6,7.5,7.3,NaN, NaN,15.1,250.9,254.4,1105403256,1105403255,1,6.6,001655,001655,254.6,33.668856,-118.099108,0.31,NaN,NaN,15.193, NaN,NaN,NaN, NaN, NaN
20050111,002806,608664,33.668606,-118.100320,12.8,15.154,22.035,28.375,82.82,0.0,2.841,14.892,14.858, NaN,15.973,   NaN,15.03,1013.60,100.00,15.33,309.7,310.0,9.4,9.0,186.4,185.7,7.7,7.3,NaN, NaN,15.5,249.0,248.8,1105403285,1105403285,1,6.7,001685,001685,256.7,33.668595,-118.100160,0.17,NaN,NaN,15.158, NaN,NaN,NaN, NaN, NaN
20050111,002836,608694,33.668371,-118.101400,12.7,15.149,21.914,28.229,79.04,0.0,2.690,14.869,14.833, NaN,15.881,   NaN,15.03,1013.55,100.00,15.33,308.7,309.2,9.6,9.2,184.9,184.5,7.8,7.5,NaN, NaN,15.6,250.6,255.4,1105403315,1105403315,1,6.8,001715,001715,254.6,33.668360,-118.101237,0.23,NaN,NaN,15.153, NaN,NaN,NaN, NaN, NaN
20050111,002905,608723,33.668085,-118.102552,12.8,15.132,22.051,28.379,74.50,0.0,2.784,14.844,14.809, NaN,15.989,   NaN,15.03,1013.60,100.00,15.33,309.2,309.6,9.7,9.3,184.2,183.7,7.9,7.5,NaN, NaN,15.9,252.1,257.6,1105403345,1105403345,1,7.4,001745,001745,256.6,33.668071,-118.102388,0.07,NaN,NaN,15.136, NaN,NaN,NaN, NaN, NaN
20050111,002935,608753,33.667805,-118.103763,12.8,15.143,22.063,28.399,69.58,0.0,2.388,14.806,14.769, NaN,15.996,   NaN,15.03,1013.56,100.00,15.32,311.5,310.9,9.8,9.5,185.3,183.8,7.7,7.5,NaN, NaN,15.9,254.7,256.1,1105403376,1105403375,1,7.8,001775,001775,255.1,33.667793,-118.103603,0.26,NaN,NaN,15.147, NaN,NaN,NaN, NaN, NaN
20050111,003005,608783,33.667496,-118.105048,12.8,15.121,23.165,29.670,66.25,0.0,2.709,14.769,14.731, NaN,16.846,   NaN,15.03,1013.55,100.00,15.34,312.6,312.0,9.7,9.7,185.5,184.8,7.5,7.5,NaN, NaN,16.8,255.9,255.6,1105403405,1105403405,1,7.9,001805,001805,255.4,33.667491,-118.104900,0.09,NaN,NaN,15.125, NaN,NaN,NaN, NaN, NaN
20050111,003036,608814,33.667153,-118.106440,12.7,15.111,23.370,29.901,64.25,0.0,2.596,14.724,14.685, NaN,17.005,   NaN,15.03,1013.55,100.00,15.33,314.4,313.1,9.8,9.9,185.7,184.5,7.3,7.5,NaN, NaN,16.1,254.5,251.2,1105403436,1105403435,1,9.2,001835,001835,256.4,33.667141,-118.106297,0.15,NaN,NaN,15.115, NaN,NaN,NaN, NaN, NaN
20050111,003105,608844,33.666790,-118.107938,12.9,15.143,23.781,30.400,64.76,0.0,2.180,14.690,14.654, NaN,17.314,   NaN,15.03,1013.56,100.00,15.34,317.4,315.5,9.6,9.9,185.5,184.6,6.8,7.3,NaN, NaN,15.5,249.2,254.8,1105403465,1105403465,1,9.7,001865,001865,255.9,33.666783,-118.107797,0.23,NaN,NaN,15.147, NaN,NaN,NaN, NaN, NaN
20050111,003135,608874,33.666400,-118.109497,12.7,15.144,25.311,32.167,62.60,0.0,2.237,14.661,14.623, NaN,18.488,   NaN,15.03,1013.53,100.00,15.34,318.5,317.7,9.6,10.1,185.1,186.1,6.6,7.1,NaN, NaN,15.8,254.3,252.7,1105403495,1105403495,1,10.1,001895,001895,255.9,33.666388,-118.109355,-0.04,NaN,NaN,15.148, NaN,NaN,NaN, NaN, NaN
20050111,003206,608905,33.665985,-118.111157,12.9,15.176,26.835,33.939,59.14,0.0,2.180,14.641,14.604, NaN,19.651,   NaN,15.04,1013.50,100.00,15.32,318.6,318.6,10.0,10.6,185.4,187.8,6.9,7.4,NaN, NaN,15.6,256.2,250.4,1105403526,1105403526,1,10.1,001926,001926,254.4,33.665981,-118.111013,0.08,NaN,NaN,15.180, NaN,NaN,NaN, NaN, NaN
20050111,003235,608933,33.665603,-118.112710,12.9,15.188,27.408,34.602,55.37,0.0,2.048,14.628,14.591, NaN,20.089,   NaN,15.03,1013.51,100.00,15.32,318.9,318.5,10.2,10.8,186.2,187.9,7.0,7.6,NaN, NaN,16.3,253.5,255.8,1105403555,1105403555,1,10.0,001955,001955,256.6,33.665600,-118.112573,0.28,NaN,NaN,15.192, NaN,NaN,NaN, NaN, NaN
20050111,003306,608964,33.665175,-118.114368,12.8,15.196,28.014,35.299,50.59,0.0,2.105,14.606,14.568, NaN,20.553,   NaN,15.03,1013.53,100.00,15.32,319.2,319.0,10.1,10.7,185.5,187.6,6.9,7.5,NaN, NaN,16.4,254.3,251.9,1105403586,1105403586,1,10.2,001986,001986,255.2,33.665178,-118.114238,0.14,NaN,NaN,15.200, NaN,NaN,NaN, NaN, NaN
20050111,003336,608994,33.664778,-118.115990,12.4,15.178,28.101,35.383,47.30,0.0,2.237,14.587,14.548, NaN,20.624,   NaN,15.03,1013.52,100.00,15.32,319.1,319.9,10.0,10.7,185.2,188.9,6.8,7.4,NaN, NaN,16.9,251.0,250.9,1105403616,1105403616,1,9.7,002016,002016,253.7,33.664783,-118.115857,0.18,NaN,NaN,15.182, NaN,NaN,NaN, NaN, NaN
20050111,003406,609024,33.664391,-118.117550,12.6,15.154,28.228,35.508,45.72,0.0,2.143,14.567,14.530, NaN,20.726,   NaN,15.02,1013.48,100.00,15.30,318.1,319.4,10.2,10.8,185.7,189.5,7.1,7.5,NaN, NaN,16.9,253.4,253.3,1105403646,1105403646,1,10.2,002045,002046,256.1,33.664373,-118.117470,0.10,NaN,NaN,15.158, NaN,NaN,NaN, NaN, NaN
20050111,003437,609055,33.663971,-118.119218,12.5,15.158,28.079,35.341,43.87,0.0,2.067,14.547,14.508, NaN,20.610,   NaN,15.03,1013.50,100.00,15.32,318.0,319.2,10.1,10.8,184.6,188.9,7.0,7.5,NaN, NaN,16.8,248.7,251.7,1105403676,1105403676,1,10.3,002076,002076,255.6,33.663973,-118.119085,0.07,NaN,NaN,15.162, NaN,NaN,NaN, NaN, NaN
20050111,003506,609085,33.663585,-118.120798,12.6,15.134,28.207,35.467,43.38,0.0,2.124,14.525,14.486, NaN,20.714,   NaN,15.02,1013.48,100.00,15.31,319.4,319.7,9.9,10.7,185.6,188.9,6.7,7.3,NaN, NaN,16.8,256.7,255.6,1105403706,1105403706,1,10.2,002105,002106,255.2,33.663568,-118.120717,0.02,NaN,NaN,15.138, NaN,NaN,NaN, NaN, NaN
20050111,003536,609115,33.663148,-118.122493,12.6,15.123,27.994,35.216,42.86,0.0,2.199,14.502,14.463, NaN,20.553,   NaN,15.02,1013.44,100.00,15.31,319.9,320.0,10.1,10.8,186.6,189.7,6.7,7.3,NaN, NaN,16.8,256.3,252.5,1105403737,1105403736,1,10.3,002136,002136,255.8,33.663145,-118.122357,-0.15,NaN,NaN,15.127, NaN,NaN,NaN, NaN, NaN
20050111,003606,609144,33.662735,-118.124140,12.4,15.154,27.942,35.183,43.64,0.0,2.067,14.478,14.439, NaN,20.507,   NaN,15.02,1013.40,100.00,15.31,318.6,319.1,10.2,10.9,185.0,188.4,6.9,7.5,NaN, NaN,16.4,252.7,254.9,1105403766,1105403766,1,10.5,002166,002166,256.6,33.662728,-118.124005,-0.19,NaN,NaN,15.158, NaN,NaN,NaN, NaN, NaN